Flag for Ukraine Weather past 2 weeks in Kyiv, Ukraine

Now
61 °F

Sprinkles. Broken clouds.


Feels Like: 61 °F
Forecast: 53 / 61 °F
Wind: 1 mph from North

Location: Kyiv

Current Time: Aug 27, 2014 at 8:40:56 PM

Latest Report: Aug 27, 2014 at 8:00 PM


Visibility: N/A

Pressure: 29.74 "Hg

Humidity: 83%

Dew point: 55 °F

Location of KyivLocation

Historic Weather in Kyiv — Graph

°F

Kyiv temperature yesterday

Maximum temperature yesterday: 70 °F (at 3:30 PM)
Minimum temperature yesterday: 43 °F (at 6:00 AM)
Average temperature yesterday: 58 °F

Past Weeks' High & Low Weather Summary

 TemperatureHumidityPressure
High93 °F (Aug 14, 3:00 PM)100% (Aug 16, 3:00 AM)30.12 "Hg (Aug 16, 3:00 AM)
Low43 °F (Aug 26, 6:00 AM)35% (Aug 20, 3:30 PM)29.71 "Hg (Aug 24, 9:30 PM)
Average66 °F70%29.92 "Hg
* Reported Aug 12 7:00 PM — Aug 27 7:30 PM, Kyiv, Weather by CustomWeather, © 2014

Note: Actual official high and low records may vary slightly from our data, if they occured in-between our weather recording intervals... More about our weather records

Advertising

Kyiv weather history for previous 24 hours

 ConditionsComfort  
Time TempWeatherWind HumidityBarometerVisibility
7:30 PM
Aug 27
61 °FSprinkles. Broken clouds.3 mph77%29.74 "HgN/A
7:00 PM63 °FSunny.3 mph73%29.74 "Hg10 mi
6:00 PM63 °FSunny.6 mph73%29.77 "Hg10 mi
5:30 PM64 °FPassing clouds.6 mph68%29.77 "HgN/A
5:00 PM64 °FSunny.8 mph68%29.74 "Hg10 mi
4:30 PM64 °FSunny.8 mph68%29.77 "Hg10 mi
4:00 PM64 °FPassing clouds.8 mph68%29.77 "HgN/A
3:30 PM66 °FPartly sunny.10 mph68%29.77 "HgN/A
3:00 PM66 °FPartly sunny.8 mph68%29.77 "HgN/A
2:30 PM64 °FPartly sunny.8 mph73%29.77 "HgN/A
2:00 PM64 °FPartly sunny.8 mph73%29.77 "HgN/A
1:30 PM64 °FPartly sunny.10 mph73%29.77 "HgN/A
1:00 PM63 °FPartly sunny.10 mph77%29.77 "HgN/A
12:30 PM63 °FPartly sunny.13 mph73%29.77 "HgN/A
12:00 PM64 °FBroken clouds.13 mph73%29.77 "HgN/A
11:30 AM63 °FPartly sunny.13 mph77%29.77 "HgN/A
11:00 AM63 °FBroken clouds.10 mph77%29.77 "HgN/A
10:30 AM61 °FPartly sunny.8 mph83%29.77 "HgN/A
10:00 AM61 °FPartly sunny.8 mph83%29.74 "HgN/A
9:30 AM61 °FBroken clouds.13 mph83%29.77 "HgN/A
9:00 AM59 °FBroken clouds.10 mph88%29.77 "HgN/A
8:30 AM61 °FScattered clouds.10 mph88%29.74 "HgN/A
8:00 AM59 °FPassing clouds.6 mph94%29.74 "HgN/A
7:30 AM59 °FSunny.6 mph94%29.74 "Hg10 mi
7:00 AM57 °FSprinkles. Passing clouds.6 mph94%29.74 "HgN/A
6:30 AM57 °FSprinkles. Passing clouds.6 mph94%29.74 "HgN/A
5:30 AM57 °FPassing clouds.6 mph94%29.74 "HgN/A
5:00 AM57 °FPassing clouds.6 mph94%29.71 "HgN/A
4:30 AM59 °FPassing clouds.6 mph94%29.71 "HgN/A
4:00 AM59 °FPassing clouds.6 mph94%29.71 "HgN/A
3:30 AM59 °FPassing clouds.6 mph94%29.71 "HgN/A
3:00 AM59 °FPassing clouds.6 mph100%29.71 "HgN/A
2:30 AM59 °FPassing clouds.6 mph100%29.71 "Hg5 mi
2:00 AM59 °FMostly cloudy.3 mph100%29.74 "Hg5 mi
1:30 AM59 °FMostly cloudy.3 mph100%29.74 "Hg4 mi
1:00 AM59 °FMostly cloudy.6 mph100%29.74 "Hg4 mi
12:30 AM59 °FLight rain. Mostly cloudy.6 mph100%29.74 "Hg4 mi
12:00 AM59 °FPassing clouds.3 mph100%29.77 "HgN/A
11:30 PM
Aug 26
59 °FPassing clouds.3 mph100%29.80 "Hg5 mi
11:00 PM59 °FFog.3 mph94%29.80 "Hg3 mi
10:30 PM59 °FClear.No wind100%29.80 "Hg10 mi
10:00 PM59 °FPartly cloudy.1 mph94%29.80 "HgN/A
9:30 PM59 °FLight rain. Passing clouds.3 mph100%29.83 "Hg5 mi
9:00 PM59 °FSprinkles. Partly cloudy.1 mph100%29.83 "Hg2 mi
8:30 PM59 °FSprinkles. Broken clouds.3 mph94%29.83 "HgN/A
8:00 PM61 °FSprinkles. Broken clouds.6 mph88%29.83 "HgN/A
Weather by CustomWeather, © 2014

See weather overviewHow to use our weather pages